CZ-6A DEB

Satellite information

Favourite Embed

Satellite Type and Status

DEBRISIN ORBIT

Key statistics

Satellite CZ-6A DEB at a glance.

Uptime

393

Days in orbit

Revolutions

≈ 14.3

Per day

Orbit

LEO

Low Earth Orbit

Inclination

88.9

Latest

Satellite identification and parameters

Extended collection of information and parameters for CZ-6A DEB.

Object identification

Identified? True

Debris? True

Object name: CZ-6A DEB

International designator: 2024-140MV

Object number (NORAD): 61079

Object ID (CCSDS): 61079

Country: PEOPLES REPUBLIC OF CHINA (PRC)

Current information (Y/N): Y

RCS size: SMALL

Orbital parameters

Period: 100.681 minutes

Inclination: 88.8504 deg

SMA: 7168.979 km

Apoapsis: 829.723 km

Periapsis: 751.965 km

RAAN: 299.3716 deg

Eccentricy: 0.0054232

Argument of periapsis: 283.8945 deg

Mean anomaly: 75.6221 deg

Mean motion: 14.3026594 rev/day

Mean motion (dot): 0.00000902 rev/day2

B* drag term: 0.00033726242 1/REarth

Two-line elements (TLE)

Creation date: Sept. 3, 2025, 2:21 a.m.

Reference frame: TEME

Reference center: EARTH

Epoch: Sept. 2, 2025, 4:01 p.m. UTC

TLE line 0: 0 CZ-6A DEB

TLE line 1: 1 61079U 24140MV 25245.66776847 .00000902 00000-0 33726-3 0 9998

TLE line 2: 2 61079 88.8504 299.3716 0054232 283.8945 75.6221 14.30265940 53229

Live tracking on map

Real-time ground track for satellite CZ-6A DEB.

In-orbit conjunctions

A list of the most updated potential collisions computed for object CZ-6A DEB.

Target Orbit TCA Probability of collision Miss distance Type
OV1-2 HEO 2025-07-29 04:53:22 0.0003242567 394.0 (m) PAYLOAD
FENGYUN 1C DEB SSO 2025-02-27 03:17:35 0.0002866083 508.0 (m) DEBRIS
NOAA 16 DEB SSO 2025-01-12 14:35:52 0.000102148 293.0 (m) DEBRIS
DELTA 1 DEB SSO 2025-01-10 22:54:52 0.0006590263 155.0 (m) DEBRIS
COSMOS 2251 DEB LEO 2024-12-08 04:35:19 0.0001429978 549.0 (m) DEBRIS

Associated space launch

18 Low Earth Orbit communication satellites with Ku, Q and V band payloads for the G60 constellation operated by Shanghai Spacecom Satellite Technology (SSST) with funding backed by the Shanghai local government. Initial constellation will consist of 1296 satellites by 2027 with long term plans to expand it to 12000 satellites.

CZ-6A DEB was lifted into orbit during the mission ‘Long March 6A | G60 Polar Group 01’, on board a Long March 6A space rocket.

The launch took place on Aug. 6, 2024, 6:42 a.m. from Launch Complex 9A.

For more information about the launch, click the button.

Launch to space Long March 6A | G60 Polar Group 01
Long March 6A | G60 Polar Group 01

Agency: N/A

Status: Launch Successful

Launch date: Aug. 6, 2024, 6:42 a.m. UTC

Rocket: Long March 6A

Launch pad: Launch Complex 9A

Location: Taiyuan Satellite Launch Center, People's Republic of China

...

Latest news about this satellite

News about space launch
Brightness of first Chinese broadband constellation satellites alarms astronomers

The first satellites of a Chinese broadband constellation are significantly brighter than those of Western systems, posing a new challenge for astronomers.

News about space launch
Chinese rocket stage breaks up into cloud of more than 700 pieces of space debris

HELSINKI — A Chinese Long March 6A rocket’s upper stage has fragmented into a cloud of over 700 pieces of space debris, adding to concerns about long-term orbital safety. China […]

News about space launch
China's Thousand Sails Megaconstellation Kicks Off with Dangerous Debris Field

China's Thousand Sails Megaconstellation Kicks Off with Dangerous Debris Field


Newsletter sign-up

Weekly statistics, charts and insights to help you stay on top of the space industry.